{"data":{"norad_id":67095,"intl_designator":"2025-298W","name":"STARLINK-36227","alt_names":[],"object_type":"PAYLOAD","status":"ACTIVE","operator":null,"country":"US","launch_date":"2025-12-14","launch_site_code":"AFWTR","launch_vehicle":null,"mission":null,"orbit_class":"UNKNOWN","rcs_meters":null,"size_class":null,"mass_kg":null,"dimensions":null,"purposes":["comms"],"wikipedia_slug":null,"has_3d_model":false,"image_url":null,"decayed_at":null,"tle_current":{"epoch":"2026-05-24T12:00:13.030848Z","epoch_age_seconds":118311,"freshness":"FRESH","line1":"1 67095U 25298W   26144.50015082  .00005304  00000+0  45195-3 0  9999","line2":"2 67095  70.0009 183.2838 0004849 266.5926  93.4678 14.98329924 24575","mean_motion":14.98329924,"eccentricity":0.0004849,"inclination_deg":70.0009,"raan_deg":183.2838,"arg_perigee_deg":266.5926,"mean_anomaly_deg":93.4678,"bstar":0.00045195,"rev_number":2457,"period_min":96.107004000542,"perigee_km":568.68597732138,"apogee_km":575.42627461494,"semimajor_km":6950.1931259682,"source":"CELESTRAK","updated_at":"2026-05-25T13:38:21.470736Z"}}}